Topcliffe RAF, United Kingdom

1:15 AM GMT on December 14, 2017 (GMT +0000)
Topcliffe Air Base

Weather History for EGXZ - January, 2013

Change the Weather History Date:

Sunday, January 6, 2013

  Actual Average Record
Temperature  
Mean Temperature 40 °F -  
Max Temperature 46 °F 43 °F - ()
Min Temperature 33 °F 34 °F - ()
Degree Days  
Heating Degree Days 26    
Moisture  
Dew Point 42 °F    
Average Humidity 99    
Maximum Humidity 100    
Minimum Humidity 93    
Precipitation  
Precipitation 0.00 in - - ()
Sea Level Pressure  
Sea Level Pressure 30.38 in    
Wind  
Wind Speed 5 mph ()    
Max Wind Speed 10 mph    
Max Gust Speed -    
Visibility 2.3 miles    
Events Fog    
T = Trace of Precipitation, MM = Missing Value Source: Averaged Metar Reports

Daily Weather History Graph

Daily Weather History Graph

Search for Another Location

Airport or City:

Trip Planner

Search our weather history database for the weather conditions in past years. The results will help you decide how hot, cold, wet, or windy it might be!

Date:

Astronomy

Jan. 06, 2013 Rise Set
Actual Time 8:23 AM GMT 3:59 PM GMT
Civil Twilight 7:40 AM GMT 4:42 PM GMT
Nautical Twilight 6:54 AM GMT 5:28 PM GMT
Astronomical Twilight 6:11 AM GMT 6:11 PM GMT
Moon 1:56 AM GMT (1/6) 11:38 AM GMT (1/6)
Length of Visible Light 9h 01m
Length of Day
7h 35m
Waning Crescent, 35% of the Moon is Illuminated
Jan 6
Waning Crescent
Jan 11
New
Jan 18
First Quarter
Jan 27
Full
Feb 3
Last Quarter

Hourly Weather History & Observations

Time (GMT) Temp. Windchill Dew Point Humidity Pressure Visibility Wind Dir Wind Speed Gust Speed Precip Events Conditions
12:50 AM 42.8 °F 40.1 °F 42.8 °F 100% 30.42 in - South 4.6 mph - N/A   Mostly Cloudy
1:50 AM 42.8 °F 39.3 °F 41.0 °F 93% 30.42 in 0.8 mi SE 5.8 mph - N/A   Mostly Cloudy
2:50 AM 46.4 °F 44.3 °F 44.6 °F 93% 30.45 in 6.2 mi SSW 4.6 mph - N/A   Mostly Cloudy
3:50 AM 41.0 °F 39.0 °F 41.0 °F 100% 30.45 in 4.3 mi SW 3.5 mph - N/A   Overcast
4:50 AM 35.6 °F 30.7 °F 35.6 °F 100% 30.45 in 0.4 mi NE 5.8 mph - N/A Fog Fog
5:50 AM 37.4 °F 33.8 °F 37.4 °F 100% 30.45 in 0.2 mi East 4.6 mph - N/A Fog Fog
6:50 AM 35.6 °F 32.8 °F 35.6 °F 100% 30.42 in 4.3 mi NE 3.5 mph - N/A   Unknown
7:50 AM 33.8 °F 28.6 °F 33.8 °F 100% 30.42 in 0.2 mi ENE 5.8 mph - N/A Fog Fog
8:50 AM 37.4 °F 34.9 °F 37.4 °F 100% 30.42 in 1.8 mi WSW 3.5 mph - N/A   Partly Cloudy
9:50 AM 41.0 °F 37.1 °F 41.0 °F 100% 30.42 in 3.1 mi South 5.8 mph - N/A   Mostly Cloudy
10:50 AM 42.8 °F 38.6 °F 42.8 °F 100% 30.42 in 1.8 mi ESE 6.9 mph - N/A   Scattered Clouds
11:50 AM 44.6 °F 39.7 °F 44.6 °F 100% 30.39 in 3.7 mi East 9.2 mph - N/A   Partly Cloudy
12:50 PM 46.4 °F 41.9 °F 46.4 °F 100% 30.39 in 3.7 mi SSE 9.2 mph - N/A   Mostly Cloudy
1:50 PM 46.4 °F 41.9 °F 46.4 °F 100% 30.36 in - SE 9.2 mph - N/A   Mostly Cloudy
2:50 PM 46.4 °F 42.9 °F 46.4 °F 100% 30.36 in - SE 6.9 mph - N/A   Mostly Cloudy
3:50 PM 46.4 °F 42.4 °F 46.4 °F 100% 30.33 in - SE 8.1 mph - N/A   Mostly Cloudy
4:50 PM 44.6 °F 39.2 °F 44.6 °F 100% 30.33 in 0.7 mi SE 10.4 mph - N/A   Mostly Cloudy
5:50 PM 44.6 °F 40.7 °F 44.6 °F 100% 30.33 in 0.9 mi SSE 6.9 mph - N/A   Mostly Cloudy
6:50 PM 44.6 °F 40.7 °F 44.6 °F 100% 30.30 in 1.0 mi ESE 6.9 mph - N/A   Mostly Cloudy
7:50 PM 42.8 °F 40.1 °F 42.8 °F 100% 30.30 in 0.6 mi ESE 4.6 mph - N/A   Mostly Cloudy
9:50 PM 46.4 °F 41.5 °F 46.4 °F 100% 30.30 in 6.2 mi SSW 10.4 mph - N/A   Overcast
10:50 PM 41.0 °F 38.0 °F 41.0 °F 100% 30.30 in 1.5 mi East 4.6 mph - N/A   Overcast
11:50 PM 42.8 °F 39.3 °F 42.8 °F 100% 30.27 in 3.1 mi South 5.8 mph - N/A   Mostly Cloudy